Wind_Speed
3 3 4 5 5 5 6 6 6 7 8 8 9 9 10 11 11 12 13 13 13 14 14 15 15 14 14 14 13 13 12 12 12 11 11 11 11 11 10 10 10 10 9
4 4 5 6 6 6 6 7 7 8 9 9 10 11 11 12 12 13 14 14 14 15 15 16 15 15 15 15 14 14 13 13 12 12 12 12 12 12 12 11 11 11 10
5 5 6 7 8 8 8 8 8 9 10 10 11 12 13 13 14 14 15 15 15 16 16 16 16 16 16 16 15 15 14 14 13 13 13 13 13 13 12 12 12 12 11
6 6 7 8 8 9 9 9 10 10 11 12 12 13 14 14 15 15 16 16 17 17 17 17 17 17 17 16 16 15 15 15 14 15 15 15 14 13 13 13 12 12 13
6 8 9 9 9 10 10 11 11 11 12 13 13 14 15 15 16 17 17 18 18 17 17 17 17 17 17 17 17 16 16 15 15 15 16 16 15 15 14 14 14 13 14
8 9 10 10 10 11 11 12 12 12 13 14 14 15 16 17 18 18 18 19 19 18 18 19 19 19 18 18 18 17 17 16 16 16 16 16 16 16 15 15 15 14 15
9 10 11 11 11 12 12 12 13 13 14 15 16 16 17 18 18 19 19 19 19 20 20 20 20 20 19 19 19 18 18 18 17 17 17 17 17 17 17 17 16 15 16
11 11 12 11 11 12 12 13 14 15 15 16 17 17 18 19 19 19 19 20 20 21 21 21 21 21 20 21 20 19 19 19 19 19 19 18 18 18 18 18 18 17 16
12 12 13 12 12 13 14 15 15 16 16 17 18 18 19 19 19 20 20 21 22 22 22 21 21 21 22 22 22 21 21 21 21 21 20 20 20 20 20 20 19 18 18
14 14 14 14 14 14 15 16 16 17 17 18 19 19 20 20 20 21 22 22 22 22 22 22 22 22 22 23 23 22 22 22 23 22 22 22 22 22 21 21 21 20 20
15 15 15 15 15 15 16 17 17 18 18 19 19 20 21 21 21 22 23 23 23 23 23 24 23 23 23 23 23 23 23 23 23 23 23 23 23 23 23 22 22 22 22
16 17 17 16 16 16 17 17 18 18 19 20 20 21 22 22 22 23 24 24 24 24 24 24 24 24 25 25 24 24 24 24 23 23 24 24 25 25 24 24 23 23 22
17 17 18 17 17 17 17 18 18 19 20 21 21 22 22 22 22 23 24 24 25 25 25 25 24 25 25 25 26 26 26 25 25 25 25 25 25 26 26 26 25 24 23
17 18 17 18 17 17 18 19 19 20 21 21 22 22 22 23 24 24 25 26 26 26 26 26 25 26 26 27 28 27 27 27 27 26 26 27 27 26 26 27 26 25 25
18 18 20 19 18 18 19 20 20 21 22 22 23 23 23 24 25 25 26 25 26 26 26 27 27 28 28 28 28 29 28 29 29 29 28 28 28 28 28 28 28 27 27
19 18 19 18 19 19 19 20 20 21 22 23 24 24 25 25 26 26 26 27 27 26 27 28 28 29 29 29 29 29 29 30 30 29 29 29 29 29 29 29 29 29 29
19 19 20 19 19 19 20 20 20 22 23 24 24 25 25 26 27 27 27 28 28 28 28 28 29 29 30 31 31 31 30 30 30 29 30 30 30 30 29 29 30 30 30
19 19 20 21 21 20 21 22 22 23 24 25 25 26 26 27 28 28 28 28 29 29 29 29 29 30 31 31 31 32 31 31 31 30 30 30 31 31 30 30 30 29 30
19 20 20 21 22 22 23 23 23 25 25 25 27 27 27 27 28 29 29 29 29 29 30 30 30 31 31 31 31 32 32 32 32 31 31 31 31 31 31 31 31 30 31
20 20 21 22 22 22 23 25 25 25 25 26 27 27 27 28 29 29 29 29 29 30 31 31 31 31 31 31 31 31 31 32 32 31 32 31 31 31 31 31 31 31 31
21 21 22 23 23 23 25 25 26 27 27 28 27 28 28 29 29 29 30 29 30 31 31 31 31 31 31 31 30 30 31 30 31 31 32 32 31 31 31 31 31 32 32
22 22 23 23 24 24 25 26 26 28 28 28 27 28 29 29 29 30 29 29 30 30 31 30 30 30 30 30 30 30 30 29 29 30 31 32 31 31 31 30 30 31 32
22 23 23 24 25 25 26 27 27 27 27 28 28 28 29 30 30 29 29 29 29 30 29 29 29 29 29 29 29 29 28 28 28 29 29 30 30 30 30 29 29 31 32
22 23 24 24 25 24 25 26 27 27 27 28 28 28 29 29 28 28 29 29 29 29 29 28 28 28 28 28 28 27 27 26 26 26 27 28 29 29 29 29 29 29 30
23 24 25 25 25 25 25 26 28 28 28 27 27 28 28 27 27 28 28 28 28 28 28 28 27 26 26 26 25 25 24 24 24 24 24 26 26 27 27 28 27 29 29
23 24 24 25 25 26 26 26 27 28 27 27 27 27 27 27 27 26 27 27 27 27 28 27 26 25 25 25 24 24 23 23 23 23 22 22 24 25 25 26 27 27 28
Wind_Direction
349 340 326 319 316 317 320 324 326 325 325 322 320 321 321 321 319 318 316 315 314 311 310 309 307 306 305 303 301 299 296 292 288 286 283 280 278 275 270 264 261 260 258
331 320 318 317 317 318 319 321 321 319 319 318 317 318 318 317 315 314 312 310 309 308 306 306 304 303 301 300 299 296 294 290 286 285 281 278 278 277 272 268 262 261 259
320 316 312 312 312 313 315 316 315 315 315 314 314 313 313 312 311 310 309 307 306 305 304 304 303 302 300 298 296 293 291 287 284 283 280 277 276 276 273 272 265 261 258
310 307 305 308 309 308 309 309 309 310 310 310 310 309 309 308 307 306 304 304 303 302 301 301 302 302 300 298 295 292 291 286 283 281 277 276 273 273 273 272 269 264 258
301 298 298 302 304 304 305 306 306 306 306 307 308 307 306 304 304 304 302 301 300 301 301 301 300 299 298 297 295 291 289 286 283 280 277 274 272 271 270 268 268 265 263
291 292 293 296 298 299 299 300 302 303 303 304 304 304 303 302 302 301 301 301 299 299 299 299 299 296 294 294 292 289 286 284 281 280 277 274 273 271 269 267 265 265 264
287 288 289 292 292 295 296 298 300 300 300 301 301 301 302 301 301 300 300 300 299 299 298 297 297 294 292 290 287 285 283 281 280 279 277 276 273 272 270 267 264 263 263
285 286 286 288 288 290 292 296 298 298 299 300 300 300 300 299 298 298 298 298 298 297 296 295 296 293 290 288 285 283 281 280 279 279 278 275 273 272 270 269 265 263 264
281 284 285 285 286 289 290 293 295 295 297 298 298 298 298 297 296 296 295 296 295 294 293 292 292 291 289 287 283 280 279 278 278 278 278 275 273 272 271 270 266 264 262
278 280 281 282 285 288 289 291 292 293 294 296 297 296 295 295 294 294 294 294 293 293 291 290 290 289 287 286 283 280 279 278 278 277 276 273 272 272 272 270 267 265 262
280 279 279 280 283 286 287 288 289 290 292 294 295 294 294 294 293 293 293 292 291 291 290 289 288 287 285 284 282 279 277 277 277 275 273 271 271 271 271 269 267 266 262
283 283 280 279 282 285 285 286 288 289 290 292 293 292 293 293 293 292 291 290 289 289 288 287 286 285 282 282 282 281 279 277 276 275 273 270 269 270 270 268 266 265 264
279 281 278 278 282 284 284 284 286 288 290 291 291 291 292 291 291 291 290 289 288 287 287 286 285 284 282 281 281 281 279 277 275 274 274 271 270 269 268 266 264 263 262
281 282 281 280 280 282 283 283 285 287 288 288 289 289 289 289 289 288 290 289 288 287 286 285 284 282 282 281 280 280 277 275 274 274 273 271 270 269 266 264 263 262 259
284 285 285 280 280 282 283 282 285 286 288 287 287 288 288 288 288 287 288 288 287 285 283 283 283 282 282 282 281 280 278 275 273 273 272 270 269 267 265 264 262 261 259
282 284 284 280 278 279 281 283 285 288 288 288 289 289 289 290 290 290 289 289 288 287 284 283 282 281 281 281 280 280 278 276 274 274 271 269 268 267 265 263 262 260 259
283 283 281 278 278 280 284 286 288 291 293 292 291 291 291 291 291 291 291 290 288 287 287 285 283 282 282 282 280 279 278 275 274 273 271 269 268 266 264 263 261 259 257
283 283 283 285 285 285 287 287 289 290 291 290 290 290 291 291 290 290 290 290 289 287 286 286 285 284 283 283 280 278 277 275 272 272 272 270 269 266 263 262 261 258 256
284 285 285 287 287 287 288 288 289 289 289 290 292 291 291 292 291 292 290 288 288 287 286 287 287 285 284 283 281 278 277 274 272 272 272 270 269 266 262 260 258 257 255
286 289 289 287 286 289 290 288 288 289 291 293 293 293 294 294 293 291 290 288 288 287 288 288 288 286 285 284 283 280 277 275 272 271 272 270 269 266 263 261 258 255 254
288 288 290 289 290 290 290 291 290 289 291 293 293 293 295 295 293 292 290 289 289 289 289 289 288 287 286 285 284 282 279 276 273 272 271 270 269 266 264 262 258 254 253
288 289 288 289 291 291 292 292 290 290 290 292 294 294 295 295 293 292 291 290 291 291 291 291 289 287 286 286 286 284 281 277 274 272 271 270 269 268 265 262 258 255 253
287 289 292 291 291 292 293 292 290 290 290 292 294 294 296 296 295 294 292 292 293 293 291 292 290 288 287 286 287 286 283 278 274 274 272 271 269 267 264 262 259 257 255
290 291 292 293 294 295 295 294 292 292 293 293 294 295 295 295 295 294 295 293 293 293 292 292 292 290 288 287 288 287 285 282 277 278 274 272 270 266 263 262 261 258 256
292 292 293 292 294 294 295 294 295 294 293 294 296 296 296 295 296 296 295 293 293 292 291 292 292 290 289 289 289 288 287 286 281 279 277 274 271 268 266 261 260 259 258
294 294 294 294 294 293 295 296 297 295 293 295 297 296 296 296 296 296 295 295 294 292 291 290 290 289 289 289 289 288 286 284 280 278 277 273 272 272 269 265 261 259 257
Height
5894 5894 5895 5894 5894 5894 5893 5892 5892 5892 5892 5892 5892 5891 5891 5890 5890 5890 5890 5889 5888 5888 5887 5886 5885 5884 5884 5883 5883 5882 5882 5881 5881 5880 5880 5880 5880 5880 5879 5880 5880 5880 5880
5894 5894 5894 5894 5893 5893 5892 5891 5891 5891 5890 5890 5890 5890 5890 5889 5889 5888 5888 5887 5886 5886 5885 5884 5883 5882 5882 5881 5881 5880 5879 5879 5878 5878 5878 5878 5878 5878 5877 5878 5878 5878 5878
5893 5893 5893 5893 5892 5892 5891 5890 5890 5889 5889 5889 5888 5888 5888 5887 5887 5886 5886 5885 5884 5883 5883 5882 5881 5880 5879 5879 5878 5878 5877 5877 5876 5876 5876 5876 5876 5876 5875 5875 5876 5876 5877
5892 5892 5892 5892 5891 5890 5890 5889 5889 5888 5888 5887 5887 5886 5886 5885 5885 5884 5883 5882 5881 5880 5880 5879 5878 5878 5877 5876 5876 5875 5875 5874 5874 5874 5874 5874 5873 5873 5873 5873 5873 5874 5874
5891 5891 5891 5891 5890 5889 5889 5888 5887 5887 5886 5886 5885 5884 5883 5883 5882 5881 5880 5879 5878 5877 5877 5876 5875 5875 5874 5874 5873 5872 5872 5872 5872 5871 5871 5871 5871 5871 5871 5871 5871 5871 5872
5889 5890 5889 5889 5888 5888 5887 5887 5886 5885 5884 5884 5883 5882 5881 5880 5879 5879 5877 5876 5875 5875 5874 5873 5872 5871 5871 5870 5870 5869 5869 5869 5868 5868 5868 5868 5868 5868 5868 5868 5868 5868 5869
5888 5888 5888 5887 5887 5886 5885 5885 5884 5883 5882 5881 5880 5879 5879 5877 5876 5875 5874 5873 5872 5871 5870 5869 5868 5868 5867 5866 5866 5866 5865 5865 5865 5865 5865 5864 5864 5864 5864 5864 5864 5865 5865
5886 5886 5886 5885 5884 5884 5883 5882 5882 5881 5880 5879 5878 5877 5876 5875 5873 5872 5871 5870 5869 5868 5867 5866 5865 5864 5863 5862 5862 5862 5861 5861 5861 5861 5861 5860 5860 5860 5860 5860 5860 5861 5861
5884 5884 5883 5883 5882 5881 5881 5880 5879 5878 5877 5876 5875 5874 5873 5872 5870 5869 5868 5867 5865 5864 5863 5862 5861 5860 5859 5858 5858 5857 5857 5856 5856 5856 5856 5856 5856 5856 5856 5856 5856 5857 5857
5882 5881 5881 5880 5879 5878 5878 5877 5876 5875 5874 5873 5872 5871 5870 5869 5867 5866 5865 5863 5862 5860 5859 5858 5857 5856 5855 5854 5853 5853 5853 5852 5852 5851 5851 5851 5851 5851 5851 5851 5852 5852 5853
5879 5878 5878 5877 5876 5875 5875 5874 5873 5872 5871 5870 5869 5867 5866 5865 5863 5862 5861 5859 5858 5856 5855 5853 5852 5851 5850 5849 5848 5848 5848 5847 5847 5846 5846 5846 5846 5846 5847 5847 5847 5848 5848
5876 5875 5874 5874 5873 5872 5871 5871 5870 5868 5867 5866 5865 5863 5862 5861 5859 5858 5856 5855 5853 5852 5850 5849 5848 5846 5845 5844 5844 5843 5842 5842 5842 5841 5841 5841 5841 5841 5841 5841 5842 5843 5844
5872 5872 5871 5870 5869 5869 5868 5867 5866 5865 5864 5862 5861 5859 5858 5856 5854 5853 5851 5849 5848 5847 5845 5843 5842 5841 5840 5839 5838 5838 5837 5836 5836 5836 5835 5835 5835 5835 5835 5836 5836 5837 5838
5869 5868 5867 5866 5866 5865 5864 5863 5862 5861 5860 5858 5856 5855 5853 5851 5849 5847 5846 5844 5842 5841 5839 5838 5837 5836 5834 5833 5833 5832 5831 5831 5830 5829 5829 5829 5829 5829 5829 5830 5830 5831 5832
5865 5864 5863 5862 5861 5860 5859 5858 5857 5856 5855 5853 5851 5849 5848 5846 5844 5842 5840 5838 5836 5835 5834 5832 5831 5830 5829 5827 5826 5825 5825 5824 5824 5823 5822 5822 5822 5822 5823 5823 5824 5825 5826
5861 5860 5859 5857 5856 5855 5855 5853 5852 5851 5849 5848 5846 5844 5843 5841 5838 5836 5835 5833 5831 5829 5828 5826 5825 5823 5822 5821 5820 5818 5818 5817 5816 5815 5815 5815 5815 5815 5816 5816 5817 5818 5819
5857 5856 5854 5852 5851 5850 5849 5848 5847 5845 5844 5842 5841 5839 5837 5835 5833 5831 5829 5826 5824 5823 5821 5820 5818 5816 5815 5814 5812 5811 5810 5809 5808 5808 5807 5807 5807 5808 5808 5809 5809 5810 5812
5853 5852 5849 5848 5847 5845 5844 5843 5842 5840 5839 5837 5835 5833 5831 5829 5826 5824 5822 5820 5818 5816 5814 5812 5811 5809 5807 5805 5804 5803 5802 5801 5800 5800 5799 5799 5799 5799 5800 5801 5802 5803 5804
5849 5847 5845 5844 5842 5841 5839 5838 5836 5835 5833 5831 5829 5827 5824 5822 5820 5818 5816 5813 5811 5809 5807 5805 5803 5801 5799 5797 5796 5795 5793 5792 5792 5791 5791 5790 5791 5791 5791 5792 5793 5794 5796
5844 5842 5841 5839 5838 5836 5834 5833 5831 5830 5828 5825 5823 5821 5818 5816 5813 5811 5808 5806 5804 5802 5800 5797 5795 5793 5791 5789 5787 5786 5785 5784 5783 5783 5782 5782 5782 5782 5783 5783 5784 5786 5788
5838 5837 5835 5834 5833 5831 5829 5827 5825 5824 5822 5819 5817 5815 5812 5809 5807 5804 5802 5799 5797 5794 5792 5789 5787 5785 5782 5781 5779 5778 5776 5775 5774 5774 5774 5773 5773 5774 5774 5775 5776 5777 5779
5834 5832 5830 5829 5827 5826 5824 5822 5820 5818 5816 5813 5810 5808 5805 5803 5800 5797 5794 5792 5789 5787 5784 5781 5779 5777 5774 5772 5771 5769 5768 5767 5765 5765 5765 5765 5765 5765 5765 5766 5767 5769 5771
5829 5828 5826 5824 5822 5820 5818 5816 5813 5811 5809 5807 5804 5801 5799 5796 5793 5790 5787 5785 5782 5779 5776 5773 5771 5768 5766 5764 5762 5761 5759 5758 5758 5758 5757 5757 5757 5757 5757 5757 5758 5760 5762
5824 5822 5820 5818 5816 5814 5812 5810 5807 5805 5803 5800 5798 5795 5792 5789 5786 5783 5780 5777 5774 5772 5769 5766 5763 5761 5759 5757 5755 5753 5752 5750 5750 5750 5750 5749 5749 5749 5749 5750 5750 5752 5753
5818 5817 5815 5812 5810 5808 5806 5804 5801 5798 5796 5794 5791 5788 5785 5782 5779 5776 5773 5770 5767 5764 5762 5759 5756 5754 5752 5750 5748 5746 5745 5744 5743 5743 5743 5742 5741 5741 5741 5742 5743 5744 5745
5813 5811 5809 5807 5805 5802 5800 5797 5794 5792 5789 5787 5784 5781 5778 5775 5772 5769 5766 5763 5760 5757 5755 5752 5750 5747 5745 5743 5741 5740 5739 5738 5737 5737 5736 5736 5735 5734 5734 5735 5736 5737 5738